Milwaukee, WI

10:29 PM CST on December 08, 2019 (GMT -0600)
Gen Mitchell International

Weather History for KMKE - September, 2019

Change the Weather History Date:

Saturday, September 28, 2019

  Actual Average Record
Temperature  
Mean Temperature 58 °F 58 °F  
Max Temperature 61 °F 66 °F 88 °F (1952)
Min Temperature 55 °F 50 °F 28 °F (1942)
Degree Days  
Heating Degree Days 7 8  
Month to date heating degree days 17 109  
Since 1 July heating degree days 19 135  
Cooling Degree Days 0 1  
Month to date cooling degree days 109 68  
Year to date cooling degree days 715 633  
Growing Degree Days 8 (Base 50)    
Moisture  
Dew Point 51 °F    
Average Humidity 79    
Maximum Humidity 93    
Minimum Humidity 64    
Precipitation  
Precipitation 0.00 in 0.11 in 1.56 in (1973)
Month to date precipitation 5.90 2.99  
Year to date precipitation 34.31 27.17  
Snow  
Snow 0.00 in 0.00 in 0.00 in (2018)
Month to date snowfall 0.0 0.0  
Since 1 July snowfall 0.0 0.0  
Since 1 September snowfall 0.0 0.0  
Snow Depth 0.00 in    
Sea Level Pressure  
Sea Level Pressure 30.10 in    
Wind  
Wind Speed 10 mph ()    
Max Wind Speed 23 mph    
Max Gust Speed 33 mph    
Visibility 9.1 miles    
Events      
T = Trace of Precipitation, MM = Missing Value Source: Averaged Metar Reports

Daily Weather History Graph

Daily Weather History Graph

Search for Another Location

Airport or City:

Astronomy

Sep. 28, 2019 Rise Set
Actual Time 6:45 AM CDT 6:38 PM CDT
Civil Twilight 6:17 AM CDT 7:06 PM CDT
Nautical Twilight 5:44 AM CDT 7:39 PM CDT
Astronomical Twilight 5:10 AM CDT 8:13 PM CDT
Moon 6:19 AM CDT (9/28) 7:05 PM CDT (9/28)
Length of Visible Light 12h 49m
Length of Day
11h 53m
Waning Crescent, 0% of the Moon is Illuminated
Sep 28
Waning Crescent
Sep 28
New
Oct 5
First Quarter
Oct 13
Full
Oct 21
Last Quarter

Hourly Weather History & Observations

Time (CDT) Temp. Dew Point Humidity Pressure Visibility Wind Dir Wind Speed Gust Speed Precip Events Conditions
12:52 AM 60.1 °F 57.9 °F 93% 29.84 in 3.0 mi North 5.8 mph - N/A   Overcast
1:52 AM 61.0 °F 57.9 °F 90% 29.86 in 3.0 mi North 5.8 mph - N/A   Overcast
2:52 AM 60.1 °F 57.0 °F 90% 29.87 in 3.0 mi North 6.9 mph - N/A   Overcast
3:52 AM 60.1 °F 57.0 °F 90% 29.91 in 10.0 mi North 6.9 mph - N/A   Overcast
4:25 AM 60.1 °F 55.9 °F 86% 29.93 in 10.0 mi North 9.2 mph - N/A   Overcast
4:52 AM 60.1 °F 57.0 °F 90% 29.94 in 8.0 mi North 11.5 mph - N/A   Overcast
5:52 AM 57.9 °F 55.0 °F 90% 29.97 in 10.0 mi North 16.1 mph 26.5 mph N/A   Overcast
6:52 AM 55.9 °F 52.0 °F 87% 30.01 in 10.0 mi NNE 15.0 mph 26.5 mph N/A   Overcast
7:52 AM 55.9 °F 51.1 °F 84% 30.06 in 10.0 mi North 13.8 mph 27.6 mph N/A   Overcast
8:52 AM 55.9 °F 50.0 °F 80% 30.07 in 10.0 mi NNE 11.5 mph 23.0 mph N/A   Overcast
9:52 AM 57.0 °F 48.0 °F 72% 30.11 in 10.0 mi North 17.3 mph 26.5 mph N/A   Mostly Cloudy
10:52 AM 57.0 °F 48.0 °F 72% 30.13 in 10.0 mi NNE 20.7 mph 33.4 mph N/A   Mostly Cloudy
11:52 AM 57.9 °F 48.0 °F 70% 30.14 in 10.0 mi NNE 17.3 mph 31.1 mph N/A   Mostly Cloudy
12:52 PM 57.9 °F 46.9 °F 67% 30.18 in 10.0 mi NNE 15.0 mph 27.6 mph N/A   Scattered Clouds
1:52 PM 60.1 °F 48.9 °F 67% 30.19 in 10.0 mi NNE 16.1 mph 21.9 mph N/A   Scattered Clouds
2:52 PM 59.0 °F 50.0 °F 72% 30.21 in 10.0 mi NE 17.3 mph 24.2 mph N/A   Scattered Clouds
3:52 PM 59.0 °F 48.0 °F 67% 30.22 in 10.0 mi NNE 16.1 mph 24.2 mph N/A   Scattered Clouds
4:52 PM 57.9 °F 48.0 °F 70% 30.21 in 10.0 mi NNE 13.8 mph - N/A   Scattered Clouds
5:52 PM 57.0 °F 48.0 °F 72% 30.24 in 10.0 mi NNE 11.5 mph - N/A   Mostly Cloudy
6:52 PM 55.9 °F 46.9 °F 72% 30.24 in 10.0 mi NNE 9.2 mph - N/A   Mostly Cloudy
7:52 PM 55.0 °F 48.0 °F 77% 30.23 in 10.0 mi NNE 9.2 mph - N/A   Scattered Clouds
8:52 PM 55.9 °F 48.0 °F 75% 30.25 in 10.0 mi NNE 10.4 mph - N/A   Partly Cloudy
9:52 PM 57.0 °F 50.0 °F 77% 30.25 in 10.0 mi NNE 10.4 mph - N/A   Mostly Cloudy
10:52 PM 57.9 °F 52.0 °F 81% 30.25 in 10.0 mi NNE 9.2 mph - N/A   Mostly Cloudy
11:52 PM 59.0 °F 53.1 °F 81% 30.23 in 10.0 mi ENE 18.4 mph 23.0 mph N/A   Mostly Cloudy